Hourly Weather Bolshie Negnovichi

Today, 17 June, Thursday

Time Temperature Precipitation Wind Pressure Humidity
00:00 +13°C° 0 mm 2 mps 750 mmHg 78%
01:00 +13°C° 0 mm 2 mps 750 mmHg 79%
02:00 +12°C° 0 mm 2 mps 750 mmHg 80%
03:00 +13°C° 0 mm 2 mps 750 mmHg 80%
04:00 +13°C° 0 mm 2 mps 750 mmHg 79%
05:00 +13°C° 0 mm 2 mps 750 mmHg 78%
06:00 +15°C° 0 mm 2 mps 751 mmHg 72%
07:00 +17°C° 0 mm 2 mps 751 mmHg 65%
08:00 +20°C° 0 mm 2 mps 751 mmHg 58%
09:00 +21°C° 0 mm 2 mps 752 mmHg 54%
10:00 +23°C° 0 mm 2 mps 752 mmHg 50%
11:00 +25°C° 0 mm 2 mps 752 mmHg 46%
12:00 +25°C° 0 mm 2 mps 752 mmHg 45%
13:00 +26°C° 0 mm 2 mps 752 mmHg 44%
14:00 +26°C° 0 mm 2 mps 752 mmHg 44%
15:00 +26°C° 0 mm 2 mps 752 mmHg 46%
16:00 +26°C° 0 mm 2 mps 752 mmHg 49%
17:00 +26°C° 0 mm 2 mps 752 mmHg 52%
18:00 +24°C° 0 mm 2 mps 752 mmHg 60%
19:00 +21°C° 0 mm 2 mps 752 mmHg 69%
20:00 +19°C° 0 mm 2 mps 752 mmHg 77%
21:00 +18°C° 0 mm 2 mps 752 mmHg 81%
22:00 +17°C° 0 mm 2 mps 752 mmHg 84%
23:00 +16°C° 0 mm 1 mps 753 mmHg 87%

Tomorrow, 18 June, Friday

Time Temperature Precipitation Wind Pressure Humidity
00:00 +16°C° 0 mm 1 mps 753 mmHg 88%
01:00 +15°C° 0 mm 1 mps 753 mmHg 88%
02:00 +15°C° 0 mm 1 mps 753 mmHg 89%
03:00 +15°C° 0 mm 1 mps 753 mmHg 89%
04:00 +15°C° 0 mm 1 mps 753 mmHg 88%
05:00 +15°C° 0 mm 1 mps 753 mmHg 88%
06:00 +17°C° 0 mm 2 mps 753 mmHg 80%
07:00 +19°C° 0 mm 2 mps 753 mmHg 72%
08:00 +21°C° 0 mm 2 mps 753 mmHg 65%
09:00 +22°C° 0 mm 3 mps 753 mmHg 59%
10:00 +25°C° 0 mm 3 mps 753 mmHg 54%
11:00 +26°C° 0 mm 3 mps 753 mmHg 48%
12:00 +26°C° 0 mm 3 mps 753 mmHg 47%
13:00 +27°C° 0 mm 3 mps 753 mmHg 45%
14:00 +27°C° 0 mm 4 mps 752 mmHg 43%
15:00 +27°C° 0 mm 3 mps 752 mmHg 47%
16:00 +27°C° 0 mm 3 mps 752 mmHg 50%
17:00 +27°C° 0 mm 3 mps 752 mmHg 53%
18:00 +25°C° 0 mm 3 mps 752 mmHg 62%
19:00 +22°C° 0 mm 3 mps 752 mmHg 71%
20:00 +20°C° 0 mm 2 mps 752 mmHg 80%
21:00 +19°C° 0 mm 2 mps 752 mmHg 83%
22:00 +18°C° 0 mm 2 mps 752 mmHg 86%
23:00 +17°C° 0 mm 2 mps 752 mmHg 90%

Day after tomorrow, 19 June, Saturday

Time Temperature Precipitation Wind Pressure Humidity
00:00 +16°C° 0 mm 2 mps 752 mmHg 91%
01:00 +16°C° 0 mm 2 mps 752 mmHg 92%
02:00 +16°C° 0 mm 2 mps 752 mmHg 94%
03:00 +16°C° 0 mm 2 mps 752 mmHg 93%
04:00 +16°C° 0 mm 2 mps 752 mmHg 93%
05:00 +16°C° 0 mm 2 mps 752 mmHg 93%
06:00 +18°C° 0 mm 2 mps 752 mmHg 86%
07:00 +20°C° 0 mm 2 mps 752 mmHg 79%
08:00 +23°C° 0 mm 2 mps 752 mmHg 73%
09:00 +24°C° 0 mm 2 mps 752 mmHg 67%
10:00 +25°C° 0 mm 3 mps 752 mmHg 60%
11:00 +27°C° 0 mm 3 mps 752 mmHg 54%
12:00 +27°C° 0 mm 3 mps 752 mmHg 52%
13:00 +28°C° 0 mm 3 mps 751 mmHg 49%
14:00 +28°C° 0 mm 3 mps 751 mmHg 46%
15:00 +28°C° 0 mm 3 mps 751 mmHg 49%
16:00 +28°C° 0 mm 3 mps 751 mmHg 52%
17:00 +28°C° 0 mm 3 mps 750 mmHg 55%
18:00 +26°C° 0 mm 3 mps 750 mmHg 63%
19:00 +24°C° 0 mm 2 mps 750 mmHg 72%
20:00 +21°C° 0 mm 2 mps 750 mmHg 80%
21:00 +20°C° 0 mm 2 mps 750 mmHg 84%
22:00 +19°C° 0 mm 2 mps 750 mmHg 87%
23:00 +18°C° 0 mm 2 mps 751 mmHg 91%

20 June, Sunday

Time Temperature Precipitation Wind Pressure Humidity
00:00 +18°C° 0 mm 2 mps 751 mmHg 92%
01:00 +17°C° 0 mm 2 mps 751 mmHg 93%
02:00 +17°C° 0 mm 2 mps 751 mmHg 94%
03:00 +17°C° 0 mm 2 mps 750 mmHg 94%
04:00 +17°C° 0 mm 2 mps 750 mmHg 93%
05:00 +19°C° 0 mm 1 mps 750 mmHg 93%
06:00 +20°C° 0 mm 2 mps 750 mmHg 87%
07:00 +21°C° 0 mm 2 mps 750 mmHg 81%
08:00 +24°C° 0 mm 3 mps 750 mmHg 75%
09:00 +25°C° 0 mm 3 mps 750 mmHg 69%
10:00 +27°C° 0 mm 3 mps 750 mmHg 64%
11:00 +28°C° 0 mm 3 mps 750 mmHg 58%
12:00 +28°C° 0 mm 3 mps 750 mmHg 56%
13:00 +29°C° 0 mm 3 mps 749 mmHg 53%
14:00 +30°C° 0 mm 3 mps 749 mmHg 50%
15:00 +29°C° 0 mm 3 mps 749 mmHg 53%
16:00 +29°C° 0 mm 3 mps 748 mmHg 56%
17:00 +29°C° 0 mm 3 mps 748 mmHg 60%
18:00 +27°C° 0 mm 3 mps 748 mmHg 67%
19:00 +25°C° 0 mm 3 mps 748 mmHg 75%
20:00 +24°C° 0 mm 3 mps 748 mmHg 82%
21:00 +23°C° 0 mm 2 mps 748 mmHg 85%
22:00 +20°C° 0 mm 2 mps 748 mmHg 89%
23:00 +19°C° 0 mm 2 mps 748 mmHg 92%

21 June, Monday

Time Temperature Precipitation Wind Pressure Humidity
00:00 +18°C° 0 mm 2 mps 748 mmHg 92%
01:00 +18°C° 0 mm 2 mps 748 mmHg 93%
02:00 +18°C° 0 mm 2 mps 748 mmHg 94%
03:00 +18°C° 0 mm 2 mps 748 mmHg 94%
04:00 +18°C° 0 mm 2 mps 748 mmHg 93%
05:00 +18°C° 0 mm 2 mps 748 mmHg 92%
06:00 +20°C° 0 mm 2 mps 748 mmHg 84%
07:00 +22°C° 0 mm 3 mps 748 mmHg 76%
08:00 +24°C° 0 mm 3 mps 748 mmHg 68%
09:00 +26°C° 0 mm 4 mps 748 mmHg 62%
10:00 +27°C° 0 mm 4 mps 748 mmHg 56%
11:00 +28°C° 0 mm 5 mps 747 mmHg 51%
12:00 +28°C° 0 mm 5 mps 747 mmHg 52%
13:00 +28°C° 0 mm 5 mps 747 mmHg 54%
14:00 +27°C° 0 mm 5 mps 747 mmHg 56%
15:00 +27°C° 0 mm 5 mps 747 mmHg 58%
16:00 +27°C° 0 mm 4 mps 746 mmHg 61%
17:00 +28°C° 0 mm 4 mps 746 mmHg 63%
18:00 +26°C° 0 mm 4 mps 746 mmHg 69%
19:00 +25°C° 0 mm 4 mps 746 mmHg 75%
20:00 +24°C° 0 mm 3 mps 746 mmHg 81%
21:00 +22°C° 0 mm 3 mps 746 mmHg 85%
22:00 +21°C° 0 mm 3 mps 746 mmHg 89%
23:00 +20°C° 0 mm 3 mps 746 mmHg 93%

22 June, Tuesday

Time Temperature Precipitation Wind Pressure Humidity
00:00 +20°C° 0 mm 3 mps 746 mmHg 94%
01:00 +20°C° 0 mm 3 mps 745 mmHg 95%
02:00 +20°C° 0 mm 3 mps 745 mmHg 96%
03:00 +20°C° 0 mm 3 mps 745 mmHg 96%
04:00 +20°C° 0 mm 3 mps 745 mmHg 95%
05:00 +20°C° 0 mm 3 mps 745 mmHg 95%
06:00 +21°C° 0 mm 3 mps 745 mmHg 87%
07:00 +23°C° 0 mm 4 mps 746 mmHg 80%
08:00 +26°C° 0 mm 4 mps 746 mmHg 73%
09:00 +27°C° 0 mm 5 mps 746 mmHg 67%
10:00 +28°C° 0 mm 5 mps 746 mmHg 61%
11:00 +30°C° 0 mm 5 mps 746 mmHg 55%
12:00 +30°C° 0 mm 5 mps 745 mmHg 53%
13:00 +32°C° 0 mm 5 mps 745 mmHg 51%
14:00 +32°C° 0 mm 5 mps 745 mmHg 50%
15:00 +32°C° 0 mm 5 mps 745 mmHg 52%
16:00 +32°C° 0 mm 5 mps 745 mmHg 54%
17:00 +30°C° 0 mm 4 mps 745 mmHg 57%
18:00 +29°C° 0 mm 4 mps 745 mmHg 63%
19:00 +27°C° 0 mm 4 mps 745 mmHg 69%
20:00 +26°C° 0 mm 4 mps 745 mmHg 75%
21:00 +25°C° 0 mm 4 mps 745 mmHg 78%
22:00 +23°C° 0 mm 4 mps 746 mmHg 82%
23:00 +22°C° 0 mm 4 mps 746 mmHg 86%
Show more